Weather History for Glasgow, United Kingdom

Change the Weather History Date:

Friday, November 30, 2012

  Actual Average Record
Temperature  
Mean Temperature 29 °F -  
Max Temperature 35 °F 43 °F 57 °F (2001)
Min Temperature 23 °F 33 °F 21 °F (2010)
Degree Days  
Heating Degree Days 36    
Moisture  
Dew Point 29 °F    
Average Humidity 95    
Maximum Humidity 100    
Minimum Humidity 87    
Precipitation  
Precipitation 0.00 in - - ()
Sea Level Pressure  
Sea Level Pressure 29.87 in    
Wind  
Wind Speed 1 mph ()    
Max Wind Speed 6 mph    
Max Gust Speed -    
Visibility 4.1 miles    
Events Fog , Rain    
Averages and records for this station are not official NWS values.
T = Trace of Precipitation, MM = Missing Value Source: Averaged Metar Reports

Daily Weather History Graph

Daily Weather History Graph

Search for Another Location

Airport:

Trip Planner

Search our weather history database for the weather conditions in past years. The results will help you decide how hot, cold, wet, or windy it might be!

Date:

Astronomy

Nov. 30, 2012 Rise Set
Actual Time 8:22 AM GMT 3:49 PM GMT
Civil Twilight 7:37 AM GMT 4:35 PM GMT
Nautical Twilight 6:49 AM GMT 5:22 PM GMT
Astronomical Twilight 6:05 AM GMT 6:07 PM GMT
Moon 5:33 PM GMT (11/30) 9:44 AM GMT (11/30)
Length of Visible Light 8h 57m
Length of Day
7h 27m
Full, 97% of the Moon is Illuminated
Nov 30
Full
Dec 6
Last Quarter
Dec 13
New
Dec 20
First Quarter
Dec 28
Full

Hourly Weather History & Observations

Time (GMT) Temp. Windchill Dew Point Humidity Pressure Visibility Wind Dir Wind Speed Gust Speed Precip Events Conditions
12:20 AM 28.4 °F - 28.4 °F 100% 29.86 in 3.1 mi West 2.3 mph - N/A   Mist
12:50 AM 26.6 °F - 26.6 °F 100% 29.86 in 5.0 mi West 2.3 mph - N/A   Unknown
1:20 AM 28.4 °F - 26.6 °F 93% 29.86 in 5.0 mi Calm Calm - N/A   Unknown
1:50 AM 28.4 °F 24.6 °F 28.4 °F 100% 29.86 in - East 3.5 mph - N/A   Clear
2:20 AM 28.4 °F - 26.6 °F 93% 29.83 in 5.0 mi Calm Calm - N/A   Unknown
2:50 AM 28.4 °F - 28.4 °F 100% 29.83 in 3.7 mi Calm Calm - N/A   Unknown
3:20 AM 26.6 °F - 26.6 °F 100% 29.83 in 1.1 mi Calm Calm - N/A   Haze
3:50 AM 28.4 °F - 26.6 °F 93% 29.83 in 0.2 mi Calm Calm - N/A Fog Light Freezing Fog
4:20 AM 24.8 °F - 23.0 °F 93% 29.83 in 6.2 mi Calm Calm - N/A Fog Patches of Fog
4:50 AM 24.8 °F 19.1 °F 24.8 °F 100% 29.83 in - WSW 4.6 mph - N/A   Partly Cloudy
5:20 AM 24.8 °F - 24.8 °F 100% 29.83 in - Calm Calm - N/A   Mist
5:50 AM 23.0 °F - 23.0 °F 100% 29.86 in 2.5 mi Calm Calm - N/A Fog Patches of Fog
6:20 AM 24.8 °F 20.5 °F 23.0 °F 93% 29.86 in 3.1 mi SSW 3.5 mph - N/A Fog Patches of Fog
6:50 AM 24.8 °F - 24.8 °F 100% 29.83 in 3.1 mi Variable 2.3 mph - N/A Fog Patches of Fog
7:20 AM 26.6 °F - 26.6 °F 100% 29.86 in 3.1 mi Calm Calm - N/A Fog Patches of Fog
7:50 AM 26.6 °F - 24.8 °F 93% 29.86 in 5.6 mi Calm Calm - N/A   Partly Cloudy
8:20 AM 26.6 °F - 26.6 °F 100% 29.86 in 5.6 mi Calm Calm - N/A   Partly Cloudy
8:50 AM 26.6 °F 22.6 °F 24.8 °F 93% 29.86 in 5.6 mi WNW 3.5 mph - N/A   Partly Cloudy
9:20 AM 26.6 °F - 24.8 °F 93% 29.89 in 3.7 mi Calm Calm - N/A   Unknown
9:50 AM 28.4 °F 24.6 °F 26.6 °F 93% 29.89 in 5.0 mi Variable 3.5 mph - N/A   Unknown
10:20 AM 26.6 °F - 26.6 °F 100% 29.89 in 5.0 mi Variable 2.3 mph - N/A   Unknown
10:50 AM 30.2 °F - 28.4 °F 93% 29.89 in 4.3 mi Calm Calm - N/A   Unknown
11:20 AM 30.2 °F - 28.4 °F 93% 29.89 in 5.0 mi Variable 2.3 mph - N/A   Unknown
11:50 AM 32.0 °F - 30.2 °F 93% 29.89 in 5.6 mi Calm Calm - N/A   Unknown
12:20 PM 32.0 °F - 30.2 °F 93% 29.89 in 5.0 mi West 2.3 mph - N/A   Unknown
12:50 PM 33.8 °F - 30.2 °F 87% 29.89 in 5.0 mi SW 2.3 mph - N/A   Unknown
1:20 PM 33.8 °F - 30.2 °F 87% 29.89 in 5.6 mi Calm Calm - N/A   Unknown
1:50 PM 33.8 °F 30.8 °F 32.0 °F 93% 29.89 in 5.6 mi WNW 3.5 mph - N/A   Partly Cloudy
2:20 PM 35.6 °F - 32.0 °F 87% 29.89 in 5.6 mi Calm Calm - N/A   Unknown
2:50 PM 33.8 °F - 30.2 °F 87% 29.89 in - Calm Calm - N/A   Clear
3:20 PM 33.8 °F - 30.2 °F 87% 29.89 in - Calm Calm - N/A   Clear
3:50 PM 33.8 °F - 32.0 °F 93% 29.89 in - Variable 2.3 mph - N/A   Clear
4:20 PM 33.8 °F - 32.0 °F 93% 29.89 in - Calm Calm - N/A   Clear
4:50 PM 33.8 °F - 32.0 °F 93% 29.89 in 6.2 mi WSW 2.3 mph - N/A   Light Drizzle
5:20 PM 33.8 °F - 32.0 °F 93% 29.92 in 6.2 mi Calm Calm - N/A   Light Drizzle
5:50 PM 33.8 °F - 32.0 °F 93% 29.92 in 6.2 mi Calm Calm - N/A   Light Drizzle
6:20 PM 33.8 °F - 32.0 °F 93% 29.89 in 6.2 mi Calm Calm - N/A   Light Drizzle
6:50 PM 33.8 °F - 32.0 °F 93% 29.89 in 5.6 mi Calm Calm - N/A   Mostly Cloudy
7:20 PM 33.8 °F - 32.0 °F 93% 29.89 in 5.0 mi Calm Calm - N/A   Light Drizzle
7:50 PM 33.8 °F 30.8 °F 32.0 °F 93% 29.89 in 5.0 mi NNE 3.5 mph - N/A   Light Drizzle
8:20 PM 33.8 °F - 33.8 °F 100% 29.89 in 2.5 mi NE 2.3 mph - N/A Rain Light Rain
8:50 PM 35.6 °F - 33.8 °F 93% 29.89 in 2.5 mi NE 2.3 mph - N/A Rain Rain
9:20 PM 35.6 °F 32.8 °F 35.6 °F 100% 29.86 in 2.5 mi Variable 3.5 mph - N/A Rain Rain
9:50 PM 35.6 °F 32.8 °F 35.6 °F 100% 29.86 in 2.2 mi SSW 3.5 mph - N/A Rain Light Rain
10:20 PM 35.6 °F - 33.8 °F 93% 29.86 in 1.0 mi ESE 2.3 mph - N/A Rain Light Rain
10:50 PM 33.8 °F - 32.0 °F 93% 29.86 in 0.6 mi NNW 2.3 mph - N/A Fog Fog
11:20 PM 33.8 °F 30.8 °F 33.8 °F 100% 29.86 in 0.6 mi WNW 3.5 mph - N/A Fog Fog
11:50 PM 33.8 °F 28.6 °F 33.8 °F 100% 29.86 in 1.9 mi West 5.8 mph - N/A Fog Patches of Fog